"read_dt","SO2 (ppb)","flags","PMT voltage (V)","lamp voltage (V)","lamp intensity (Hz)","internal temp (C)","react chamber temp (C)","sample flow (l/min)","pres (mmHg)","SO2 bkg (ppb)","SO2 coefficient"
2018-10-08 00:00:00,-2.032E-01,4C000000*,-702.6,963.384,89,27.2,45.1,0.412,744.4,2.1,1.050*
2018-10-08 00:01:00,-2.738E-01,4C000000*,-703.0,963.384,91,27.2,44.9,0.411,744.4,2.1,1.050*
2018-10-08 00:02:00,-2.689E-01,4C000000*,-702.6,964.192,90,27.2,44.9,0.411,744.4,2.1,1.050*
2018-10-08 00:03:00,-3.832E-01,4C000000*,-703.0,964.597,89,27.2,45.1,0.411,744.4,2.1,1.050*
2018-10-08 00:04:00,-2.988E-01,4C000000*,-703.0,965.405,89,27.2,44.8,0.411,744.4,2.1,1.050*
2018-10-08 00:05:00,-1.856E-01,4C000000*,-702.6,962.575,89,27.1,44.9,0.411,744.4,2.1,1.050*
2018-10-08 00:06:00,-2.267E-01,4C000000*,-703.0,963.788,90,27.1,45.1,0.411,744.4,2.1,1.050*
2018-10-08 00:07:00,-2.873E-01,4C000000*,-702.6,964.192,91,27.1,44.8,0.411,744.4,2.1,1.050*
2018-10-08 00:08:00,-2.066E-01,4C000000*,-703.0,962.171,89,27.1,45.0,0.411,744.4,2.1,1.050*
                                                                                             "read_dt","SO2 (ppb)","flags","PMT voltage (V)","lamp voltage (V)","lamp intensity (Hz)","internal temp (C)","react chamber temp (C)","sample flow (l/min)","pres (mmHg)","SO2 bkg (ppb)","SO2 coefficient"
2018-10-08 05:59:00,0.000E+00,4C000055*,-704.1,425.296,0,17.2,19.2,0.407,744.7,2.2,1.050*
2018-10-08 06:00:00,-9.725E-01,4C000045*,-703.4,904.764,78,17.2,19.8,0.407,744.4,2.2,1.050*
2018-10-08 06:01:00,3.103E-01,4C000005*,-703.4,952.873,89,17.3,20.6,0.407,743.8,2.2,1.050*
2018-10-08 06:02:00,4.524E-01,4C000005*,-703.4,957.724,91,17.4,21.5,0.407,743.8,2.2,1.050*
2018-10-08 06:03:00,2.836E-01,4C000005*,-703.4,956.511,89,17.6,22.3,0.407,743.8,2.2,1.050*
2018-10-08 06:04:00,3.336E-01,4C000005*,-703.0,960.150,90,17.7,23.2,0.407,743.8,2.2,1.050*
2018-10-08 06:05:00,3.827E-01,4C000005*,-703.4,958.937,89,18.0,24.0,0.407,743.8,2.2,1.050*
2018-10-08 06:06:00,3.747E-01,4C000005*,-703.0,959.341,90,18.1,24.8,0.407,743.8,2.2,1.050*
2018-10-08 06:07:00,3.158E-01,4C000005*,-703.4,960.554,91,18.2,25.6,0.407,743.8,2.2,1.050*
2018-10-08 06:08:00,3.219E-01,4C000005*,-703.4,960.150,90,18.4,26.4,0.407,743.8,2.2,1.050*
2018-10-08 06:09:00,2.724E-01,4C000005*,-703.7,961.362,91,18.6,27.2,0.407,743.2,2.2,1.050*
2018-10-08 06:10:00,3.629E-01,4C000005*,-703.4,961.362,90,18.7,27.9,0.407,743.2,2.2,1.050*
2018-10-08 06:11:00,1.994E-01,4C000005*,-703.4,963.788,90,18.9,28.6,0.407,743.2,2.2,1.050*
2018-10-08 06:12:00,2.769E-01,4C000005*,-703.0,962.171,89,19.1,29.3,0.407,743.2,2.2,1.050*
2018-10-08 06:13:00,1.685E-01,4C000005*,-703.4,964.192,90,19.2,29.9,0.407,743.2,2.2,1.050*
2018-10-08 06:14:00,2.139E-01,4C000005*,-703.4,961.767,89,19.4,30.6,0.408,743.2,2.2,1.050*
2018-10-08 06:15:00,1.648E-01,4C000005*,-703.4,962.979,89,19.5,31.2,0.407,743.2,2.2,1.050*
2018-10-08 06:16:00,1.868E-01,4C000005*,-703.4,963.384,89,19.7,31.8,0.408,743.2,2.2,1.050*
2018-10-08 06:17:00,1.743E-01,4C000005*,-703.4,963.384,88,19.9,32.4,0.408,743.2,2.2,1.050*
2018-10-08 06:18:00,2.214E-01,4C000005*,-703.4,962.979,88,20.0,33.0,0.407,743.2,2.2,1.050*
2018-10-08 06:19:00,1.493E-01,4C000005*,-703.0,962.979,90,20.1,33.5,0.408,743.2,2.2,1.050*
2018-10-08 06:20:00,1.931E-01,4C000005*,-703.0,963.384,91,20.2,34.1,0.408,743.2,2.2,1.050*
2018-10-08 06:21:00,1.831E-01,4C000005*,-703.4,964.192,91,20.4,34.6,0.407,742.9,2.2,1.050*
2018-10-08 06:22:00,7.304E-02,4C000005*,-702.6,963.384,90,20.5,35.0,0.408,743.2,2.2,1.050*
2018-10-08 06:23:00,1.077E-01,4C000005*,-703.0,964.192,91,20.6,35.6,0.408,743.2,2.2,1.050*
2018-10-08 06:24:00,1.412E-01,4C000005*,-703.4,963.788,90,20.8,36.0,0.408,743.2,2.2,1.050*
2018-10-08 06:25:00,8.292E-02,4C000005*,-703.4,962.979,89,20.9,36.5,0.408,743.2,2.2,1.050*
2018-10-08 06:26:00,7.711E-02,4C000005*,-703.4,964.597,90,21.1,36.9,0.408,743.2,2.2,1.050*
2018-10-08 06:27:00,-2.075E-02,4C000005*,-703.0,965.405,89,21.2,37.4,0.408,743.2,2.2,1.050*
2018-10-08 06:28:00,7.815E-02,4C000005*,-703.7,964.597,91,21.3,37.8,0.408,743.2,2.2,1.050*
2018-10-08 06:29:00,-1.070E-02,4C000005*,-703.4,964.192,90,21.3,38.2,0.408,742.9,2.2,1.050*
2018-10-08 06:30:00,2.573E-02,4C000005*,-703.4,964.597,91,21.5,38.6,0.408,743.2,2.2,1.050*
2018-10-08 06:31:00,-6.457E-02,4C000005*,-703.0,964.192,90,21.6,39.0,0.408,743.2,2.2,1.050*
2018-10-08 06:32:00,7.177E-02,4C000005*,-703.0,964.192,90,21.7,39.4,0.408,743.2,2.2,1.050*
2018-10-08 06:33:00,-2.178E-02,4C000005*,-703.0,964.192,90,21.8,39.7,0.408,742.9,2.2,1.050*
2018-10-08 06:34:00,-1.586E-02,4C000005*,-703.4,965.809,90,21.9,40.1,0.408,743.2,2.2,1.050*
2018-10-08 06:35:00,-8.795E-02,4C000005*,-703.0,964.192,89,22.0,40.4,0.408,742.9,2.2,1.050*
2018-10-08 06:36:00,-1.331E-01,4C000005*,-703.4,964.192,89,22.0,40.7,0.408,742.9,2.2,1.050*
2018-10-08 06:37:00,-2.156E-02,4C000005*,-703.0,965.405,90,22.2,41.1,0.408,742.9,2.2,1.050*
2018-10-08 06:38:00,-1.714E-01,4C000005*,-703.0,963.788,90,22.2,41.5,0.408,742.9,2.2,1.050*
2018-10-08 06:39:00,-9.515E-02,4C000005*,-703.0,964.192,90,22.3,41.7,0.408,742.9,2.2,1.050*
2018-10-08 06:40:00,-1.234E-01,4C000005*,-703.0,966.214,90,22.4,42.0,0.408,742.9,2.2,1.050*
2018-10-08 06:41:00,-6.570E-02,4C000005*,-703.0,964.192,90,22.5,42.3,0.408,742.9,2.2,1.050*
2018-10-08 06:42:00,-1.847E-01,4C000005*,-703.0,965.405,91,22.6,42.6,0.408,742.9,2.2,1.050*
2018-10-08 06:43:00,-1.007E-01,4C000005*,-703.0,965.001,90,22.6,42.9,0.408,742.9,2.2,1.050*
2018-10-08 06:44:00,-7.611E-02,4C000000*,-703.0,964.597,90,22.8,43.2,0.408,742.9,2.2,1.050*
2018-10-08 06:45:00,-9.566E-02,4C000000*,-703.0,964.192,89,22.8,43.4,0.408,742.9,2.2,1.050*
2018-10-08 06:46:00,-1.867E-01,4C000000*,-703.0,965.405,90,22.9,43.7,0.408,742.9,2.2,1.050*
2018-10-08 06:47:00,-4.852E-02,4C000000*,-703.0,964.597,90,23.0,43.9,0.408,742.9,2.2,1.050*
2018-10-08 06:48:00,-1.181E-01,4C000000*,-703.0,965.809,91,23.1,44.1,0.409,742.9,2.2,1.050*
2018-10-08 06:49:00,-1.505E-01,4C000000*,-703.4,962.979,90,23.1,44.4,0.409,742.9,2.2,1.050*
2018-10-08 06:50:00,-2.272E-01,4C000000*,-703.0,964.192,90,23.2,44.6,0.408,742.9,2.2,1.050*
2018-10-08 06:51:00,-1.534E-01,4C000000*,-703.0,965.405,90,23.3,44.8,0.409,742.9,2.2,1.050*
2018-10-08 06:52:00,-1.835E-01,4C000000*,-703.0,964.597,89,23.3,45.0,0.409,742.9,2.2,1.050*
2018-10-08 06:53:00,-9.534E-02,4C000000*,-703.0,964.597,90,23.4,44.9,0.409,742.9,2.2,1.050*
2018-10-08 06:54:00,-7.006E-02,4C000000*,-703.0,963.788,89,23.4,45.0,0.409,742.9,2.2,1.050*
2018-10-08 06:55:00,-2.102E-01,4C000000*,-703.0,963.788,90,23.4,45.0,0.409,742.9,2.2,1.050*
2018-10-08 06:56:00,-2.455E-01,4C000000*,-703.0,965.001,88,23.6,44.7,0.409,742.9,2.2,1.050*
2018-10-08 06:57:00,-2.323E-01,4C000000*,-702.6,963.788,89,23.5,44.8,0.409,742.9,2.2,1.050*
2018-10-08 06:58:00,-1.548E-01,4C000000*,-703.0,964.597,90,23.6,45.1,0.409,742.9,2.2,1.050*
2018-10-08 06:59:00,-1.775E-01,4C000000*,-702.6,965.001,89,23.6,44.8,0.409,742.9,2.2,1.050*
2018-10-08 07:00:00,-2.481E-01,4C000000*,-703.0,963.788,90,23.7,44.8,0.409,742.9,2.2,1.050*
2018-10-08 07:01:00,-1.830E-01,4C000000*,-703.4,963.788,90,23.7,44.9,0.409,742.9,2.2,1.050*
2018-10-08 07:02:00,-2.154E-01,4C000000*,-703.0,964.597,87,23.8,45.2,0.409,742.9,2.2,1.050*
2018-10-08 07:03:00,-2.384E-01,4C000000*,-702.6,964.192,89,23.7,44.7,0.409,742.9,2.2,1.050*
2018-10-08 07:04:00,-1.540E-01,4C000000*,-703.4,964.597,90,23.9,44.8,0.409,742.9,2.2,1.050*
2018-10-08 07:05:00,-2.313E-01,4C000000*,-703.0,964.192,89,23.9,45.0,0.409,742.9,2.2,1.050*
2018-10-08 07:06:00,-2.555E-01,4C000000*,-702.6,963.788,87,23.8,45.0,0.409,742.6,2.2,1.050*
2018-10-08 07:07:00,-2.745E-01,4C000000*,-703.0,964.192,91,23.9,44.7,0.409,742.6,2.2,1.050*
2018-10-08 07:08:00,-3.072E-01,4C000000*,-702.6,963.384,90,23.9,44.9,0.409,742.9,2.2,1.050*
2018-10-08 07:09:00,-2.344E-01,4C000000*,-703.0,963.788,90,24.0,45.1,0.409,742.9,2.2,1.050*
2018-10-08 07:10:00,-2.443E-01,4C000000*,-703.4,963.384,90,24.0,44.8,0.409,742.6,2.2,1.050*
2018-10-08 07:11:00,-2.000E-01,4C000000*,-703.4,965.001,90,24.0,45.0,0.409,742.9,2.2,1.050*
2018-10-08 07:12:00,-2.886E-01,4C000000*,-703.0,963.788,90,24.1,45.1,0.409,742.9,2.2,1.050*
2018-10-08 07:13:00,-2.485E-01,4C000000*,-703.0,964.597,88,24.1,44.8,0.409,742.9,2.2,1.050*
2018-10-08 07:14:00,-2.435E-01,4C000000*,-703.0,963.788,90,24.1,45.0,0.409,742.9,2.2,1.050*
2018-10-08 07:15:00,-2.389E-01,4C000000*,-703.4,964.192,90,24.1,44.9,0.409,742.6,2.2,1.050*
2018-10-08 07:16:00,-3.050E-01,4C000000*,-703.0,965.001,90,24.1,44.8,0.409,742.9,2.2,1.050*
2018-10-08 07:17:00,-2.317E-01,4C000000*,-702.6,962.979,91,24.2,45.0,0.409,742.9,2.2,1.050*
2018-10-08 07:18:00,-1.753E-01,4C000000*,-703.0,964.597,89,24.2,45.0,0.409,742.6,2.2,1.050*
2018-10-08 07:19:00,-2.163E-01,4C000000*,-702.6,963.384,91,24.1,44.7,0.409,742.6,2.2,1.050*
2018-10-08 07:20:00,-1.657E-01,4C000000*,-703.0,964.597,90,24.3,44.9,0.409,742.6,2.2,1.050*
2018-10-08 07:21:00,-2.366E-01,4C000000*,-703.0,962.575,90,24.2,45.1,0.409,742.6,2.2,1.050*
2018-10-08 07:22:00,-2.915E-01,4C000000*,-703.0,964.597,91,24.2,44.8,0.409,742.6,2.2,1.050*
2018-10-08 07:23:00,-2.481E-01,4C000000*,-703.4,962.979,89,24.3,44.9,0.409,742.6,2.2,1.050*
2018-10-08 07:24:00,-2.531E-01,4C000000*,-703.0,963.384,90,24.3,45.1,0.409,742.6,2.2,1.050*
2018-10-08 07:25:00,-2.873E-01,4C000000*,-703.0,964.597,91,24.3,44.8,0.409,742.6,2.2,1.050*
2018-10-08 07:26:00,-3.110E-01,4C000000*,-703.4,962.979,90,24.4,44.9,0.409,742.6,2.2,1.050*
2018-10-08 07:27:00,-2.244E-01,4C000000*,-702.6,963.788,89,24.3,45.0,0.409,742.6,2.2,1.050*
2018-10-08 07:28:00,-3.581E-01,4C000000*,-703.0,964.192,91,24.4,44.8,0.410,742.6,2.2,1.050*
2018-10-08 07:29:00,-2.409E-01,4C000000*,-703.0,964.192,90,24.4,45.0,0.409,742.6,2.2,1.050*
2018-10-08 07:30:00,-1.738E-01,4C000000*,-703.0,963.788,90,24.4,45.0,0.409,742.6,2.2,1.050*
2018-10-08 07:31:00,-2.620E-01,4C000000*,-703.0,964.192,90,24.4,44.7,0.409,742.6,2.2,1.050*
2018-10-08 07:32:00,-2.722E-01,4C000000*,-703.0,963.384,90,24.3,45.0,0.409,742.6,2.2,1.050*
2018-10-08 07:33:00,-1.730E-01,4C000000*,-703.0,963.788,91,24.4,45.1,0.409,742.6,2.2,1.050*
2018-10-08 07:34:00,-3.204E-01,4C000000*,-703.0,964.597,90,24.4,44.8,0.409,742.6,2.2,1.050*
2018-10-08 07:35:00,-2.025E-01,4C000000*,-703.4,963.788,90,24.4,44.9,0.409,742.6,2.2,1.050*
2018-10-08 07:36:00,-2.414E-01,4C000000*,-703.0,964.192,90,24.5,45.1,0.409,742.6,2.2,1.050*
2018-10-08 07:37:00,-3.174E-01,4C000000*,-702.6,964.597,90,24.4,44.8,0.409,742.9,2.2,1.050*
2018-10-08 07:38:00,-2.230E-01,4C000000*,-703.0,963.788,90,24.4,45.0,0.409,742.6,2.2,1.050*
2018-10-08 07:39:00,-2.567E-01,4C000000*,-702.6,963.788,90,24.4,44.9,0.409,742.6,2.2,1.050*
2018-10-08 07:40:00,-2.440E-01,4C000000*,-703.0,962.979,89,24.5,44.8,0.409,742.6,2.2,1.050*
2018-10-08 07:41:00,-2.463E-01,4C000000*,-703.0,962.979,90,24.5,45.0,0.409,742.6,2.2,1.050*
2018-10-08 07:42:00,-3.257E-01,4C000000*,-703.4,964.192,91,24.5,44.9,0.409,742.3,2.2,1.050*
2018-10-08 07:43:00,-2.492E-01,4C000000*,-702.6,962.171,91,24.5,44.9,0.410,742.6,2.2,1.050*
2018-10-08 07:44:00,-2.995E-01,4C000000*,-703.0,963.384,89,24.5,45.1,0.409,742.9,2.2,1.050*
2018-10-08 07:45:00,-3.099E-01,4C000000*,-703.0,962.171,90,24.6,44.8,0.409,742.9,2.2,1.050*
2018-10-08 07:46:00,-2.759E-01,4C000000*,-703.0,963.384,90,24.6,45.0,0.409,742.6,2.2,1.050*
2018-10-08 07:47:00,-3.048E-01,4C000000*,-703.0,961.767,89,24.7,45.0,0.409,742.6,2.2,1.050*
2018-10-08 07:48:00,-2.621E-01,4C000000*,-702.6,962.979,89,24.7,44.8,0.409,742.6,2.2,1.050*
2018-10-08 07:49:00,-2.967E-01,4C000000*,-703.0,963.384,89,24.7,45.0,0.409,742.6,2.2,1.050*
2018-10-08 07:50:00,-2.582E-01,4C000000*,-703.7,963.788,90,24.7,45.0,0.410,742.6,2.2,1.050*
2018-10-08 07:51:00,-1.964E-01,4C000000*,-703.0,962.979,89,24.7,44.8,0.410,742.9,2.2,1.050*
2018-10-08 07:52:00,-2.960E-01,4C000000*,-703.0,962.979,89,24.7,44.9,0.409,742.6,2.2,1.050*
2018-10-08 07:53:00,-1.932E-01,4C000000*,-703.0,963.788,89,24.8,45.1,0.409,742.9,2.2,1.050*
2018-10-08 07:54:00,-2.505E-01,4C000000*,-703.0,962.575,90,24.6,44.8,0.409,742.6,2.2,1.050*
2018-10-08 07:55:00,-3.160E-01,4C000000*,-703.0,962.979,89,24.7,44.9,0.409,742.9,2.2,1.050*
2018-10-08 07:56:00,-3.154E-01,4C000000*,-702.6,964.192,89,24.7,45.0,0.409,742.6,2.2,1.050*
2018-10-08 07:57:00,-2.099E-01,4C000000*,-703.0,963.788,89,24.8,44.8,0.410,742.6,2.2,1.050*
2018-10-08 07:58:00,-2.494E-01,4C000000*,-702.6,962.575,88,24.8,45.0,0.409,742.6,2.2,1.050*
2018-10-08 07:59:00,-2.821E-01,4C000000*,-702.6,962.575,90,24.8,45.1,0.409,742.6,2.2,1.050*
2018-10-08 08:00:00,-3.057E-01,4C000000*,-703.0,964.192,91,24.8,44.8,0.409,742.6,2.2,1.050*
2018-10-08 08:01:00,-2.135E-01,4C000000*,-702.6,963.384,90,25.0,45.0,0.409,742.6,2.2,1.050*
2018-10-08 08:02:00,-2.508E-01,4C000000*,-702.6,962.979,90,24.9,44.8,0.409,742.6,2.2,1.050*
2018-10-08 08:03:00,-2.434E-01,4C000000*,-703.0,964.597,91,24.9,44.8,0.410,742.9,2.2,1.050*
2018-10-08 08:04:00,-3.180E-01,4C000000*,-703.0,961.362,90,24.8,45.0,0.410,742.9,2.2,1.050*
2018-10-08 08:05:00,-2.271E-01,4C000000*,-703.0,962.575,89,24.9,45.0,0.409,742.6,2.2,1.050*
2018-10-08 08:06:00,-2.200E-01,4C000000*,-703.0,963.384,91,24.9,44.8,0.409,742.6,2.2,1.050*
2018-10-08 08:07:00,-3.578E-01,4C000000*,-703.0,964.192,91,24.9,45.0,0.409,742.6,2.2,1.050*
2018-10-08 08:08:00,-2.210E-01,4C000000*,-702.6,962.979,90,24.8,45.0,0.410,742.6,2.2,1.050*
2018-10-08 08:09:00,-3.586E-01,4C000000*,-703.0,962.979,88,24.8,44.7,0.409,742.6,2.2,1.050*
2018-10-08 08:10:00,-2.914E-01,4C000000*,-703.0,963.384,88,24.8,44.9,0.409,742.6,2.2,1.050*
2018-10-08 08:11:00,-2.612E-01,4C000000*,-703.4,964.192,91,24.9,45.1,0.409,742.6,2.2,1.050*
2018-10-08 08:12:00,-2.392E-01,4C000000*,-702.6,963.384,90,24.8,44.7,0.410,742.6,2.2,1.050*
2018-10-08 08:13:00,-2.136E-01,4C000000*,-703.0,962.979,90,24.9,44.9,0.409,742.6,2.2,1.050*
2018-10-08 08:14:00,-2.541E-01,4C000000*,-702.6,965.405,90,24.9,45.0,0.409,742.6,2.2,1.050*
2018-10-08 08:15:00,-2.882E-01,4C000000*,-703.0,965.405,90,24.9,44.8,0.409,742.6,2.2,1.050*
2018-10-08 08:16:00,-2.441E-01,4C000000*,-702.6,964.192,89,24.8,45.1,0.410,742.6,2.2,1.050*
2018-10-08 08:17:00,-3.113E-01,4C000000*,-702.6,964.597,90,24.9,44.9,0.409,742.9,2.2,1.050*
2018-10-08 08:18:00,-2.401E-01,4C000000*,-703.0,962.979,90,24.9,45.0,0.409,742.6,2.2,1.050*
2018-10-08 08:19:00,-3.771E-01,4C000000*,-703.0,965.809,89,24.8,44.9,0.409,742.6,2.2,1.050*
2018-10-08 08:20:00,-3.193E-01,4C000000*,-703.0,962.575,91,24.8,44.9,0.409,742.6,2.2,1.050*
2018-10-08 08:21:00,-2.915E-01,4C000000*,-702.6,964.192,89,24.9,45.1,0.409,742.6,2.2,1.050*
2018-10-08 08:22:00,-3.422E-01,4C000000*,-703.0,963.788,91,24.9,44.8,0.410,742.6,2.2,1.050*
2018-10-08 08:23:00,-2.804E-01,4C000000*,-703.0,962.171,90,24.9,44.9,0.409,742.6,2.2,1.050*
2018-10-08 08:24:00,-1.965E-01,4C000000*,-703.0,963.788,90,24.8,45.1,0.409,742.6,2.2,1.050*
2018-10-08 08:25:00,-2.779E-01,4C000000*,-703.4,963.788,89,24.9,44.8,0.409,742.6,2.2,1.050*
2018-10-08 08:26:00,-3.015E-01,4C000000*,-702.6,962.575,90,24.9,44.9,0.410,742.6,2.2,1.050*
2018-10-08 08:27:00,-2.569E-01,4C000000*,-703.0,962.575,91,24.9,45.2,0.410,742.3,2.2,1.050*
2018-10-08 08:28:00,-3.404E-01,4C000000*,-702.6,962.979,90,24.9,44.8,0.409,742.6,2.2,1.050*
2018-10-08 08:29:00,-2.803E-01,4C000000*,-703.4,961.767,91,24.9,45.0,0.410,742.6,2.2,1.050*
2018-10-08 08:30:00,-2.090E-01,4C000000*,-703.4,963.788,90,24.9,44.9,0.409,742.6,2.2,1.050*
2018-10-08 08:31:00,-2.276E-01,4C000000*,-703.0,964.192,90,25.0,44.8,0.410,742.9,2.2,1.050*
2018-10-08 08:32:00,-1.972E-01,4C000000*,-702.6,962.171,88,24.9,45.0,0.409,742.6,2.2,1.050*
2018-10-08 08:33:00,-2.669E-01,4C000000*,-703.4,963.384,90,25.0,44.9,0.409,742.6,2.2,1.050*
2018-10-08 08:34:00,-3.478E-01,4C000000*,-703.0,963.384,90,24.9,44.9,0.410,742.9,2.2,1.050*
2018-10-08 08:35:00,-2.736E-01,4C000000*,-703.0,963.788,90,25.0,45.1,0.410,742.6,2.2,1.050*
2018-10-08 08:36:00,-2.241E-01,4C000000*,-703.0,964.192,88,25.0,44.8,0.409,742.6,2.2,1.050*
2018-10-08 08:37:00,-2.649E-01,4C000000*,-702.6,963.384,89,25.0,45.0,0.409,742.6,2.2,1.050*
2018-10-08 08:38:00,-2.691E-01,4C000000*,-703.0,963.384,89,25.0,45.1,0.410,742.6,2.2,1.050*
2018-10-08 08:39:00,-2.601E-01,4C000000*,-703.0,963.788,91,25.0,44.8,0.410,742.6,2.2,1.050*
2018-10-08 08:40:00,-3.194E-01,4C000000*,-702.6,963.788,90,25.0,45.0,0.409,742.6,2.2,1.050*
2018-10-08 08:41:00,-2.557E-01,4C000000*,-703.0,964.597,90,25.0,44.9,0.410,742.6,2.2,1.050*
2018-10-08 08:42:00,-3.054E-01,4C000000*,-703.0,964.192,90,25.0,44.8,0.409,742.6,2.2,1.050*
2018-10-08 08:43:00,-3.039E-01,4C000000*,-703.0,964.597,89,25.0,45.1,0.410,742.6,2.2,1.050*
2018-10-08 08:44:00,-2.540E-01,4C000000*,-703.0,963.788,90,25.0,44.9,0.409,742.3,2.2,1.050*
2018-10-08 08:45:00,-2.093E-01,4C000000*,-703.0,962.979,89,25.1,44.9,0.409,742.6,2.2,1.050*
2018-10-08 08:46:00,-2.659E-01,4C000000*,-703.0,962.171,90,25.0,45.1,0.409,742.6,2.2,1.050*
2018-10-08 08:47:00,-2.914E-01,4C000000*,-703.0,964.192,90,25.0,44.7,0.410,742.6,2.2,1.050*
2018-10-08 08:48:00,-2.549E-01,4C000000*,-703.4,963.384,90,25.1,44.9,0.409,742.6,2.2,1.050*
2018-10-08 08:49:00,-2.864E-01,4C000000*,-702.6,964.597,90,25.0,45.1,0.409,742.6,2.2,1.050*
2018-10-08 08:50:00,-3.229E-01,4C000000*,-703.0,962.575,91,25.0,44.8,0.410,742.6,2.2,1.050*
2018-10-08 08:51:00,-2.298E-01,4C000000*,-703.0,962.979,89,25.0,44.8,0.410,742.6,2.2,1.050*
2018-10-08 08:52:00,-2.925E-01,4C000000*,-703.0,962.979,91,25.0,45.1,0.409,742.6,2.2,1.050*
2018-10-08 08:53:00,-2.836E-01,4C000000*,-703.0,962.979,89,25.0,44.9,0.409,742.6,2.2,1.050*
2018-10-08 08:54:00,-3.095E-01,4C000000*,-702.6,962.171,88,25.0,44.8,0.409,742.6,2.2,1.050*
2018-10-08 08:55:00,-2.474E-01,4C000000*,-703.0,963.788,89,25.1,45.1,0.409,742.6,2.2,1.050*
2018-10-08 08:56:00,-2.510E-01,4C000000*,-702.6,962.979,90,25.1,44.8,0.409,742.6,2.2,1.050*
2018-10-08 08:57:00,-2.574E-01,4C000000*,-702.6,963.788,89,25.0,44.9,0.409,742.3,2.2,1.050*
2018-10-08 08:58:00,-2.581E-01,4C000000*,-703.4,964.597,89,25.0,45.1,0.409,742.6,2.2,1.050*
2018-10-08 08:59:00,-2.364E-01,4C000000*,-703.4,964.192,91,25.0,44.8,0.409,742.6,2.2,1.050*
2018-10-08 09:00:00,-2.654E-01,4C000000*,-702.6,962.171,90,25.1,45.0,0.409,742.6,2.2,1.050*
2018-10-08 09:01:00,-2.906E-01,4C000000*,-703.0,962.979,89,25.1,45.1,0.409,742.3,2.2,1.050*
2018-10-08 09:02:00,-2.550E-01,4C000000*,-703.0,962.979,90,25.1,44.8,0.409,742.6,2.2,1.050*
2018-10-08 09:03:00,-2.983E-01,4C000000*,-702.6,962.979,90,25.1,45.0,0.410,742.6,2.2,1.050*
2018-10-08 09:04:00,-1.991E-01,4C000000*,-703.0,964.597,90,25.1,45.0,0.409,742.3,2.2,1.050*
2018-10-08 09:05:00,-3.011E-01,4C000000*,-703.0,963.384,90,25.2,44.8,0.409,742.6,2.2,1.050*
2018-10-08 09:06:00,-3.286E-01,4C000000*,-703.0,965.001,89,25.1,45.1,0.409,742.3,2.2,1.050*
2018-10-08 09:07:00,-3.332E-01,4C000000*,-703.0,963.788,91,25.1,44.7,0.409,742.3,2.2,1.050*
2018-10-08 09:08:00,-2.649E-01,4C000000*,-702.6,963.788,90,25.1,44.8,0.409,742.6,2.2,1.050*
2018-10-08 09:09:00,-3.289E-01,4C000000*,-703.0,962.979,90,25.1,45.1,0.410,742.6,2.2,1.050*
2018-10-08 09:10:00,-3.263E-01,4C000000*,-702.6,963.384,90,25.1,44.8,0.409,742.3,2.2,1.050*
2018-10-08 09:11:00,-2.341E-01,4C000000*,-702.6,963.788,90,25.1,44.8,0.410,742.3,2.2,1.050*
2018-10-08 09:12:00,-3.745E-01,4C000000*,-703.0,963.788,90,25.1,45.1,0.409,742.3,2.2,1.050*
2018-10-08 09:13:00,-2.971E-01,4C000000*,-703.0,961.362,88,25.2,44.9,0.409,742.3,2.2,1.050*
2018-10-08 09:14:00,-2.729E-01,4C000000*,-702.6,965.001,91,25.2,44.8,0.409,742.3,2.2,1.050*
2018-10-08 09:15:00,-2.230E-01,4C000000*,-703.7,962.979,90,25.1,45.0,0.409,742.3,2.2,1.050*
2018-10-08 09:16:00,-3.054E-01,4C000000*,-702.6,963.788,89,25.1,44.9,0.409,742.3,2.2,1.050*
2018-10-08 09:17:00,-1.910E-01,4C000000*,-703.0,963.384,90,25.2,44.8,0.409,742.3,2.2,1.050*
2018-10-08 09:18:00,-3.069E-01,4C000000*,-702.6,963.384,90,25.2,45.1,0.409,742.3,2.2,1.050*
2018-10-08 09:19:00,-3.086E-01,4C000000*,-702.6,962.979,90,25.2,44.9,0.409,742.3,2.2,1.050*
2018-10-08 09:20:00,-3.111E-01,4C000000*,-703.0,963.384,90,25.2,45.0,0.409,742.3,2.2,1.050*
2018-10-08 09:21:00,-2.590E-01,4C000000*,-703.0,962.979,90,25.2,45.0,0.409,742.3,2.2,1.050*
2018-10-08 09:22:00,-2.502E-01,4C000000*,-703.0,963.384,89,25.1,44.8,0.409,742.3,2.2,1.050*
2018-10-08 09:23:00,-2.061E-01,4C000000*,-703.0,965.001,89,25.2,44.9,0.409,742.3,2.2,1.050*
2018-10-08 09:24:00,-3.181E-01,4C000000*,-702.6,963.788,90,25.2,45.2,0.410,742.3,2.2,1.050*
2018-10-08 09:25:00,-2.288E-01,4C000000*,-703.0,964.192,90,25.2,44.7,0.409,742.3,2.2,1.050*
2018-10-08 09:26:00,-2.931E-01,4C000000*,-702.6,965.001,91,25.2,44.8,0.410,742.3,2.2,1.050*
2018-10-08 09:27:00,-2.957E-01,4C000000*,-703.0,964.192,90,25.3,45.0,0.410,742.3,2.2,1.050*
2018-10-08 09:28:00,-3.003E-01,4C000000*,-702.6,965.001,91,25.2,44.8,0.409,742.3,2.2,1.050*
2018-10-08 09:29:00,-3.417E-01,4C000000*,-703.0,964.597,90,25.2,44.8,0.409,742.3,2.2,1.050*
2018-10-08 09:30:00,-2.853E-01,4C000000*,-703.0,962.575,88,25.2,45.1,0.409,742.3,2.2,1.050*
2018-10-08 09:31:00,-2.450E-01,4C000000*,-703.0,965.001,88,25.3,44.9,0.409,742.3,2.2,1.050*
2018-10-08 09:32:00,-2.936E-01,4C000000*,-703.0,963.384,90,25.2,44.8,0.409,742.3,2.2,1.050*
2018-10-08 09:33:00,-3.337E-01,4C000000*,-702.6,964.597,90,25.2,45.0,0.409,742.3,2.2,1.050*
2018-10-08 09:34:00,-2.418E-01,4C000000*,-703.0,965.001,90,25.2,44.9,0.410,742.0,2.2,1.050*
2018-10-08 09:35:00,-2.914E-01,4C000000*,-702.6,963.384,89,25.2,44.9,0.409,742.3,2.2,1.050*
2018-10-08 09:36:00,-3.156E-01,4C000000*,-703.0,964.192,89,25.2,45.2,0.409,742.3,2.2,1.050*
2018-10-08 09:37:00,-2.622E-01,4C000000*,-703.0,963.384,90,25.2,44.8,0.409,742.3,2.2,1.050*
2018-10-08 09:38:00,-2.621E-01,4C000000*,-702.6,965.001,90,25.2,44.9,0.409,742.3,2.2,1.050*
2018-10-08 09:39:00,-2.723E-01,4C000000*,-702.6,964.192,90,25.2,45.0,0.409,742.3,2.2,1.050*
2018-10-08 09:40:00,-2.472E-01,4C000000*,-702.6,964.192,90,25.2,44.8,0.409,742.0,2.2,1.050*
2018-10-08 09:41:00,-2.357E-01,4C000000*,-702.6,962.575,89,25.2,45.0,0.409,742.0,2.2,1.050*
2018-10-08 09:42:00,-3.253E-01,4C000000*,-703.0,963.788,91,25.2,45.1,0.409,742.0,2.2,1.050*
2018-10-08 09:43:00,-2.670E-01,4C000000*,-703.4,963.788,90,25.2,44.8,0.409,742.3,2.2,1.050*
2018-10-08 09:44:00,-2.003E-01,4C000000*,-703.0,965.001,90,25.2,45.1,0.409,742.3,2.2,1.050*
2018-10-08 09:45:00,-2.420E-01,4C000000*,-703.0,964.192,90,25.2,45.0,0.409,742.0,2.2,1.050*
2018-10-08 09:46:00,-2.911E-01,4C000000*,-703.0,963.788,90,25.2,44.9,0.409,742.0,2.2,1.050*
2018-10-08 09:47:00,-2.214E-01,4C000000*,-702.6,965.405,91,25.2,45.2,0.409,742.3,2.2,1.050*
2018-10-08 09:48:00,-2.278E-01,4C000000*,-703.0,965.001,90,25.2,44.8,0.409,742.0,2.2,1.050*
2018-10-08 09:49:00,-2.525E-01,4C000000*,-703.0,963.384,90,25.2,45.1,0.409,742.3,2.2,1.050*
2018-10-08 09:50:00,-2.226E-01,4C000000*,-703.0,964.192,88,25.2,44.8,0.410,742.0,2.2,1.050*
2018-10-08 09:51:00,-2.556E-01,4C000000*,-703.0,964.597,91,25.2,44.8,0.409,742.3,2.2,1.050*
2018-10-08 09:52:00,-3.012E-01,4C000000*,-703.0,965.405,91,25.2,45.0,0.409,742.3,2.2,1.050*
2018-10-08 09:53:00,-3.002E-01,4C000000*,-703.0,964.192,90,25.2,45.1,0.409,742.0,2.2,1.050*
2018-10-08 09:54:00,-2.168E-01,4C000000*,-702.6,963.788,90,25.2,44.8,0.409,742.3,2.2,1.050*
2018-10-08 09:55:00,-2.599E-01,4C000000*,-703.0,965.405,90,25.3,45.0,0.409,742.3,2.2,1.050*
2018-10-08 09:56:00,-1.810E-01,4C000000*,-702.6,963.788,88,25.3,44.9,0.409,742.0,2.2,1.050*
2018-10-08 09:57:00,-3.211E-01,4C000000*,-702.6,963.788,90,25.2,44.9,0.410,742.3,2.2,1.050*
2018-10-08 09:58:00,-1.164E-01,4C000000*,-703.0,963.384,91,25.3,45.1,0.409,742.0,2.2,1.050*
2018-10-08 09:59:00,-3.224E-01,4C000000*,-703.0,963.384,88,25.2,44.8,0.409,742.0,2.2,1.050*
2018-10-08 10:00:00,-1.864E-01,4C000000*,-703.4,963.788,89,25.3,45.1,0.409,742.0,2.2,1.050*
2018-10-08 10:01:00,-2.467E-01,4C000000*,-703.0,963.788,90,25.2,44.9,0.409,742.0,2.2,1.050*